Wind_Speed
31 30 28 25 24 25 27 29 30 31 31 30 29 28 29 29 30 30 30 28 27 25 24 23 23 22 21 19 18 17 16 16 16 15 15 14 13 13 13 13 13 14 14 15 15 16 17 17 18 18 18 18 19 19 20 20 21 21 21 21 21 21 21 20 20 21 21 21 22 23 24 25 26 27 28 28 26 25 23 22 21 21 20 19 19 18
31 29 27 27 28 29 30 31 32 32 32 30 29 28 29 29 29 29 29 28 26 25 23 22 21 20 19 18 17 17 16 16 16 15 15 14 13 12 13 13 13 13 14 14 14 15 15 16 17 18 18 19 20 20 21 21 21 21 21 21 20 20 19 19 19 20 20 20 21 22 23 24 25 25 25 24 23 22 21 21 20 20 19 19 18 18
30 29 28 29 30 32 33 34 33 33 31 30 29 28 28 28 28 29 28 27 25 24 22 21 20 19 18 17 17 16 16 16 16 15 15 14 13 13 13 13 13 13 13 14 14 14 15 15 16 17 18 19 19 20 20 21 20 20 19 18 18 17 17 17 17 18 18 19 19 20 21 21 21 21 21 20 20 19 19 19 19 19 19 18 18 18
30 30 30 32 34 34 34 34 33 32 31 30 29 28 27 27 28 28 27 26 23 22 20 20 19 18 17 17 17 16 16 16 16 15 14 13 13 13 13 13 13 13 14 14 14 14 14 15 15 16 16 17 18 18 18 18 18 17 16 16 16 16 16 16 16 16 17 17 18 18 18 19 19 19 19 18 18 18 19 19 19 18 18 18 18 17
32 32 34 35 35 35 34 33 32 31 30 30 29 28 27 27 28 27 26 24 21 20 19 19 19 18 17 16 16 17 16 16 15 15 14 13 13 14 14 14 14 14 14 14 14 14 14 15 15 15 15 15 16 16 16 16 15 15 15 15 15 15 15 16 16 16 17 17 17 17 18 18 18 18 18 18 18 18 18 18 18 18 18 18 17 16
35 35 36 36 35 34 32 31 30 30 29 28 27 27 27 28 27 26 24 22 20 19 19 19 18 17 17 16 16 16 16 16 15 14 14 13 14 14 14 14 15 15 15 15 15 15 14 14 14 14 14 15 15 15 15 15 15 14 14 15 15 15 16 16 16 17 17 17 17 18 18 18 18 18 18 18 18 18 18 18 18 18 17 17 16 16
36 36 35 34 32 32 31 30 30 29 28 27 27 27 28 27 26 24 22 20 19 19 19 18 17 17 17 16 16 16 16 15 15 14 14 14 14 14 15 15 15 15 15 15 15 15 15 15 14 14 14 15 15 15 15 15 15 15 15 15 15 16 16 16 17 17 17 17 18 18 18 18 18 18 18 18 18 18 18 18 17 17 17 16 16 15
33 33 32 31 31 31 31 31 30 28 27 27 27 28 27 26 24 22 21 20 19 19 18 17 17 17 17 16 16 16 15 15 14 14 14 14 15 15 15 15 15 16 16 16 16 15 15 15 15 15 15 15 15 15 15 15 15 15 15 15 16 16 17 17 17 17 17 18 18 18 18 18 18 18 18 18 18 18 17 17 17 16 16 16 15 15
30 31 31 31 31 31 31 30 29 28 27 27 27 26 25 24 22 21 20 19 19 19 18 17 17 17 16 16 16 15 15 15 15 14 14 15 15 16 16 16 16 16 16 16 16 16 16 16 15 15 15 15 16 16 15 15 15 15 15 16 16 16 17 17 17 17 17 18 18 18 18 18 18 18 18 18 17 17 17 16 16 16 15 15 15 15
29 29 29 30 31 31 31 30 29 28 27 26 24 23 22 22 21 20 20 19 19 18 17 17 16 16 16 16 16 15 15 15 15 15 15 15 16 16 16 16 16 16 16 17 17 16 16 16 16 16 16 16 16 16 16 15 15 15 15 16 16 16 16 17 17 17 17 17 17 18 18 18 18 17 17 17 17 17 16 16 16 15 15 15 14 14
27 27 27 28 28 29 29 28 27 26 25 23 21 20 20 20 20 19 19 19 18 18 17 17 16 16 16 16 16 15 15 15 15 15 16 16 16 16 17 17 17 17 17 17 17 16 16 16 16 16 16 16 16 16 16 16 15 15 15 15 16 16 16 16 17 17 17 17 17 17 17 17 17 17 17 17 17 16 16 16 15 15 15 14 14 14
24 24 24 25 27 28 27 26 24 23 21 20 19 19 19 18 18 18 18 18 18 17 17 17 16 16 16 16 15 15 15 15 15 15 16 16 17 17 17 17 17 17 18 17 17 16 16 16 16 16 16 16 16 16 16 16 15 15 15 15 15 16 16 16 16 16 17 17 17 17 17 17 17 17 16 16 16 16 16 15 15 14 14 14 14 14
22 22 23 24 26 26 26 23 21 20 19 19 18 19 18 18 17 17 17 17 17 17 16 16 16 16 16 15 15 15 15 15 15 16 16 17 17 17 17 17 17 18 17 17 16 16 15 15 15 15 15 15 16 16 16 16 15 15 15 15 15 15 16 16 16 16 16 16 16 16 16 16 16 16 15 15 15 15 15 14 14 13 13 13 13 13
21 21 23 24 25 24 23 21 19 18 18 17 16 16 16 16 16 16 16 17 17 17 16 16 16 16 16 15 15 15 15 15 16 16 17 17 17 18 17 17 17 18 17 16 16 16 15 15 15 15 15 15 15 16 16 15 15 15 15 15 15 15 15 16 16 16 16 15 15 15 15 15 15 14 14 14 14 13 13 13 12 12 12 12 12 12
20 21 22 23 23 22 20 18 17 16 15 15 14 14 15 16 16 17 17 17 17 17 16 16 16 16 16 15 15 15 15 16 16 16 17 17 18 18 17 17 17 17 17 16 16 15 15 15 15 15 15 15 15 15 15 15 15 15 15 15 15 15 15 15 15 15 15 15 14 14 14 14 13 13 13 12 12 12 11 11 11 11 11 11 11 11
19 19 19 20 19 18 16 15 14 14 14 14 14 15 15 16 17 17 16 16 16 16 16 16 16 16 16 16 16 16 16 16 17 17 17 18 18 18 18 17 17 17 16 16 15 15 15 15 15 15 15 15 15 15 15 15 15 15 15 15 15 15 15 15 14 14 14 13 13 13 12 12 12 11 11 11 10 10 10 10 10 10 10 10 10 10
16 16 16 16 15 15 14 13 13 13 14 15 15 16 16 16 17 16 16 15 16 16 16 16 16 16 16 16 16 16 16 17 17 18 18 18 18 18 18 17 16 16 16 15 15 15 15 15 15 15 15 15 15 15 15 15 14 14 14 14 14 14 14 14 13 13 12 12 11 11 11 10 10 10 10 9 9 9 9 9 9 9 9 9 9 9
15 14 14 14 13 13 13 13 14 14 15 15 16 16 16 16 16 16 15 15 16 16 16 15 15 15 16 16 16 17 17 17 18 19 19 18 18 18 17 17 16 16 15 15 15 15 15 14 14 14 14 14 14 14 14 14 14 14 14 14 14 13 13 12 12 11 11 10 10 10 10 9 9 9 9 9 8 8 8 8 8 8 8 8 8 8
13 13 13 13 14 14 15 15 15 15 14 14 15 15 15 15 16 15 15 15 15 15 15 14 15 15 15 15 16 17 17 17 18 19 19 19 18 18 17 16 16 16 15 15 14 15 15 14 14 14 14 14 14 14 14 14 14 13 13 13 13 12 12 11 11 10 10 10 9 9 9 8 8 8 8 8 8 8 8 8 8 8 8 8 8 7
13 14 14 14 15 16 16 16 15 14 14 14 14 14 14 14 14 14 14 14 14 14 14 14 15 15 16 16 17 17 18 18 18 19 19 18 18 17 17 16 16 16 15 14 14 15 15 15 14 14 14 14 14 14 14 13 13 13 12 12 12 11 11 10 10 9 9 9 9 8 8 8 8 8 8 7 7 7 7 7 7 7 7 7 7 7
14 14 15 15 16 16 16 15 14 14 14 14 14 14 14 14 13 13 14 14 14 14 15 15 15 16 17 18 18 18 19 18 18 18 19 19 18 17 16 16 16 15 15 14 14 15 15 15 14 14 14 14 14 13 13 13 12 12 12 11 11 10 10 10 9 9 9 9 8 8 8 8 7 7 7 7 7 7 7 7 7 7 7 7 7 6
14 15 15 15 15 15 15 15 15 15 15 14 14 14 13 13 12 12 13 13 13 14 15 15 16 17 19 19 19 19 19 18 18 18 19 18 18 17 16 15 15 15 15 14 14 15 15 14 14 14 13 13 13 12 12 12 12 12 11 11 10 10 9 9 9 9 9 8 8 8 8 8 7 7 7 7 7 7 7 7 7 7 7 7 7 7
15 15 15 15 15 15 15 16 16 16 15 14 14 13 13 12 12 12 12 13 14 14 15 16 18 19 20 20 20 20 19 18 18 18 18 18 17 16 15 15 15 15 15 14 14 14 14 14 14 13 13 12 12 12 12 11 11 11 11 10 10 9 9 9 9 9 8 8 8 8 8 8 7 7 7 7 7 7 7 7 7 7 7 7 7 7
15 15 15 15 15 15 16 16 16 15 15 14 14 14 14 14 14 14 15 15 16 17 18 18 19 20 21 21 20 19 19 18 17 17 17 18 17 16 15 15 15 15 15 14 14 14 14 13 13 12 12 11 11 11 11 11 11 11 10 10 9 9 9 9 9 9 8 8 8 8 8 8 8 8 8 7 7 7 8 8 8 8 8 8 8 8
14 14 15 15 16 16 16 16 15 15 15 14 14 14 15 15 16 16 17 18 18 19 20 20 20 20 21 20 19 18 18 17 17 16 17 17 17 16 15 14 14 15 15 14 14 14 13 13 12 12 11 11 11 11 11 11 11 10 10 9 9 9 9 9 9 9 9 8 8 8 8 8 8 8 8 8 8 8 8 8 8 8 8 8 9 9
14 14 15 15 15 16 16 15 15 15 15 15 15 15 16 16 17 17 18 19 19 19 19 20 20 20 20 20 19 18 18 17 16 16 16 16 16 15 14 14 14 14 14 14 14 13 13 13 12 11 11 11 11 11 11 11 10 10 10 9 9 9 9 9 9 9 9 9 9 9 9 9 9 9 9 9 9 9 9 9 9 9 9 9 10 10
13 14 14 15 15 15 16 16 16 16 16 16 16 17 17 17 18 18 19 19 19 19 19 20 20 20 20 19 18 18 17 17 16 16 16 16 16 16 14 13 14 14 14 14 14 13 13 12 12 11 11 11 11 11 11 11 10 10 10 9 9 9 9 9 9 9 9 9 9 9 10 10 10 10 10 10 10 10 10 10 10 10 10 10 11 11
14 14 15 15 16 16 16 16 16 16 17 17 17 18 18 18 18 18 19 19 19 19 19 20 20 19 19 18 18 18 17 17 16 16 16 16 17 16 14 13 13 14 14 14 14 13 13 12 12 11 11 11 11 11 11 11 10 10 10 10 10 10 10 9 9 9 10 10 10 10 10 10 10 11 11 11 10 11 11 11 11 11 11 11 11 11
15 15 16 16 16 16 16 17 17 17 17 18 18 18 19 19 18 18 18 18 18 19 19 20 19 19 18 18 18 18 17 17 16 16 16 16 16 16 13 13 13 14 14 14 13 13 13 12 12 11 11 11 11 11 11 11 11 10 10 10 10 10 10 10 10 10 10 11 11 11 11 11 11 12 12 12 12 12 12 12 12 12 12 12 12 12
16 16 17 17 17 17 17 17 17 18 18 18 18 18 19 18 18 18 18 19 19 19 19 19 19 18 18 18 18 18 17 16 15 15 16 16 16 15 13 13 14 14 13 13 13 13 13 12 12 11 11 11 11 11 11 11 11 11 11 11 11 11 11 11 11 11 11 11 12 12 12 12 13 13 13 13 13 13 13 13 13 13 13 13 13 13
17 17 17 17 17 17 17 17 17 18 18 18 18 18 18 18 18 18 19 19 19 19 19 18 18 18 18 18 18 18 17 15 15 15 15 16 16 15 14 14 14 14 13 13 13 13 13 12 12 12 12 12 12 12 12 11 11 11 11 11 11 11 11 11 11 12 12 12 13 13 13 14 14 14 14 14 14 14 14 14 14 14 14 14 14 14
18 18 18 18 18 17 17 17 17 17 17 16 16 16 17 17 17 18 18 18 18 18 18 18 18 18 17 17 17 17 16 14 14 15 15 15 15 15 15 14 14 14 14 13 13 13 11 11 12 12 12 12 12 12 12 12 11 11 11 12 12 12 12 12 12 12 13 13 14 14 14 15 15 15 15 15 15 15 15 15 15 15 14 14 14 14
19 19 18 18 18 17 17 17 16 16 16 15 15 16 16 16 17 17 17 17 17 17 17 17 17 17 17 17 16 16 15 14 14 14 15 15 15 16 15 14 14 14 14 13 14 13 13 12 12 11 12 12 12 12 12 12 12 12 12 12 12 12 13 13 13 13 14 14 14 15 15 15 15 15 15 15 15 15 15 15 15 15 15 15 15 15
19 19 18 18 18 17 16 16 16 15 15 15 14 15 15 16 16 16 17 17 16 16 16 16 16 16 16 16 16 15 15 14 14 15 15 15 15 15 15 14 14 14 14 14 14 14 14 13 13 12 12 12 12 12 12 12 12 12 12 12 13 13 13 14 14 14 15 15 15 16 16 16 16 16 16 16 16 16 16 16 16 16 16 16 16 16
19 18 18 17 17 16 16 15 15 15 14 14 14 14 14 15 15 16 16 16 16 15 15 15 15 15 15 15 15 15 14 15 15 15 15 15 15 15 14 14 14 14 14 14 14 14 14 13 13 13 13 13 13 13 13 13 12 12 13 13 14 14 14 14 15 15 16 16 16 17 17 17 17 17 16 16 17 17 17 17 17 17 17 17 17 17
18 17 17 16 16 15 15 15 15 14 14 14 14 14 14 14 15 15 15 15 15 15 14 14 14 14 14 14 14 14 14 15 16 16 16 16 16 15 15 15 14 14 14 14 14 14 14 14 14 14 14 14 14 14 14 14 13 13 14 14 15 15 15 16 16 16 16 17 17 18 18 18 18 18 18 18 18 18 18 18 18 18 18 18 18 18
17 16 15 15 15 15 15 14 14 14 13 13 13 14 14 14 14 14 14 14 14 14 14 13 13 14 14 14 14 14 15 16 17 16 16 16 16 16 16 15 15 14 14 15 15 15 14 14 14 15 15 15 15 15 15 15 15 15 15 15 15 16 16 16 16 17 17 18 18 18 19 19 19 19 19 19 19 19 19 19 19 19 19 19 19 19
16 15 14 14 14 14 14 14 14 13 13 13 14 14 14 14 14 14 14 14 13 13 13 13 13 13 13 14 14 15 15 16 16 16 16 16 16 16 16 15 15 15 15 15 15 15 15 15 16 16 16 15 15 15 15 15 16 16 16 16 16 16 17 17 17 17 18 18 19 19 20 20 20 20 20 20 20 20 20 20 20 20 20 20 20 20
14 13 13 13 13 13 13 13 13 13 13 14 14 14 14 14 13 13 13 13 13 13 13 13 13 13 13 14 14 15 15 16 16 16 16 16 16 16 16 15 15 15 15 16 16 16 16 16 16 16 16 16 16 16 16 16 16 17 17 17 17 17 17 18 18 18 19 19 19 20 20 20 20 21 21 21 21 21 21 21 21 21 20 20 20 20
13 13 12 12 12 13 13 13 13 13 14 14 14 14 14 14 14 14 14 14 14 13 13 13 13 13 14 14 14 15 15 16 16 16 16 16 16 16 16 16 15 15 16 16 17 17 17 17 17 17 16 16 16 16 16 17 17 18 18 18 18 18 18 18 18 19 19 19 19 20 20 20 21 21 21 22 22 22 22 22 22 22 21 21 21 21
12 12 11 12 12 13 13 13 14 14 14 14 14 14 14 14 14 14 14 14 14 14 14 14 14 14 14 14 14 15 15 16 16 16 17 17 16 16 16 16 16 16 16 17 17 17 17 17 17 17 17 16 16 17 17 17 18 18 19 19 19 19 19 19 19 19 19 19 20 20 20 21 21 22 22 23 23 23 23 23 23 22 22 22 22 22
12 12 11 12 12 13 13 14 14 14 14 14 14 14 14 14 15 15 15 15 15 15 14 14 15 15 14 14 14 15 15 16 16 17 17 17 17 17 17 16 16 16 17 17 17 17 17 17 17 17 17 16 17 17 17 17 18 19 19 19 19 19 19 20 20 20 20 20 20 20 21 21 22 22 23 24 24 24 24 24 24 23 23 23 23 22
13 12 12 12 13 14 14 14 14 14 14 14 14 14 14 14 15 15 16 16 16 15 15 15 15 16 16 15 15 15 15 16 17 17 17 17 17 17 17 17 17 17 17 17 17 17 17 17 17 17 16 16 17 18 18 18 18 18 19 19 19 19 20 20 20 20 20 21 21 21 21 22 22 23 24 24 25 25 25 24 24 24 24 24 23 23
13 13 13 13 13 14 14 14 14 14 14 14 14 14 14 15 15 16 16 16 16 16 16 16 16 16 16 16 15 15 16 16 17 17 17 17 17 17 17 17 17 17 18 18 18 18 17 17 17 17 16 17 18 19 19 18 18 18 18 19 20 20 20 20 20 20 21 21 22 22 22 23 23 24 25 25 25 25 25 25 25 25 25 25 24 24
13 13 13 13 14 14 15 15 15 15 15 15 15 14 15 15 16 16 16 16 16 16 16 17 17 17 17 16 16 16 16 17 17 17 17 17 17 17 17 18 18 18 18 18 18 18 18 18 17 17 17 18 19 20 19 19 18 18 18 18 19 20 20 20 20 21 21 22 22 23 23 24 24 25 25 25 25 25 26 26 25 25 25 25 25 25
14 14 14 14 15 15 16 16 16 16 16 15 15 15 15 16 16 17 17 17 17 17 17 17 18 18 18 17 16 16 16 17 18 18 18 18 18 18 18 18 18 18 18 18 18 19 19 19 18 18 19 20 20 20 20 19 18 17 17 17 18 19 20 20 20 21 21 22 23 23 24 25 25 25 26 26 26 26 26 26 26 26 26 26 26 26
15 15 15 15 16 16 16 17 17 17 16 16 16 15 15 16 17 17 18 17 17 18 18 18 18 18 18 17 16 16 17 17 18 18 19 18 18 18 18 19 19 19 19 19 19 19 19 20 20 20 20 20 21 21 20 18 18 17 17 17 18 19 20 20 20 21 21 22 23 24 25 26 26 26 26 26 26 26 26 26 26 26 26 26 26 26
16 16 16 16 16 17 17 17 17 17 17 17 16 16 16 17 17 18 18 18 18 19 19 19 19 19 19 18 17 17 17 18 18 19 19 19 19 19 19 19 19 19 19 19 19 20 20 20 21 21 21 21 21 21 20 18 18 17 17 17 18 19 20 20 20 20 21 22 24 25 26 26 27 27 27 27 27 26 26 26 26 26 26 27 27 27
17 17 17 17 17 17 17 17 17 17 17 17 17 16 17 17 18 19 19 19 20 20 20 20 20 20 19 19 18 17 18 18 19 19 20 20 20 19 19 19 20 20 20 20 20 20 21 21 21 22 21 21 21 21 20 19 18 18 18 18 19 19 20 19 20 20 21 22 24 25 26 27 27 27 27 27 27 27 26 26 26 26 27 27 27 27
17 18 18 18 18 18 18 18 18 18 18 18 17 17 18 18 19 20 20 20 21 21 21 21 21 20 20 19 19 18 18 19 19 20 20 20 20 20 20 20 20 20 20 20 21 21 21 22 22 22 21 21 21 20 20 20 19 19 19 19 20 20 20 20 20 20 21 23 24 25 26 27 27 27 27 28 28 27 27 26 26 26 26 27 27 27
19 19 19 19 19 19 19 19 18 18 18 18 18 18 19 19 20 21 21 21 21 21 21 21 21 21 21 20 19 19 19 19 20 20 20 20 21 21 21 20 20 20 20 21 21 21 22 22 23 23 22 21 20 20 20 20 20 20 20 20 20 20 20 20 21 21 22 23 24 25 26 26 27 27 27 27 27 28 27 27 26 26 26 27 27 27
Wind_Direction
270 264 258 255 261 272 283 288 287 285 282 278 275 273 272 270 268 266 264 261 259 258 258 260 264 268 272 275 278 279 277 274 271 268 263 257 252 248 246 247 248 250 251 252 252 254 255 256 257 257 257 257 257 257 257 256 256 256 256 256 256 256 256 256 256 256 256 255 255 256 258 260 262 264 267 272 276 281 285 288 290 291 291 290 289 289
264 261 259 264 272 281 286 286 283 281 278 276 274 273 272 270 268 265 262 259 256 255 256 259 263 267 271 274 276 275 273 270 267 264 260 255 251 247 246 246 247 249 251 252 254 256 257 258 259 259 258 258 258 258 257 257 257 257 257 257 256 256 255 254 254 255 255 256 256 258 259 262 264 267 270 274 278 282 285 287 288 288 288 288 287 287
262 263 267 273 279 283 284 282 279 276 275 273 272 270 269 268 266 263 259 256 254 254 256 259 263 267 270 273 273 272 269 266 264 261 257 254 250 248 247 247 248 250 252 254 255 257 259 260 261 261 260 260 260 259 259 258 257 256 256 255 254 254 254 254 254 255 256 257 258 260 262 264 267 270 273 276 279 282 284 285 286 286 286 286 286 286
265 269 274 277 279 279 278 277 275 274 273 271 269 268 266 264 261 259 256 254 253 254 258 261 264 267 270 271 270 268 265 263 261 257 254 251 249 248 248 249 251 252 255 257 259 261 262 263 263 263 263 263 263 262 260 258 257 255 253 253 253 253 254 255 255 257 258 260 261 263 265 268 270 273 276 278 279 281 282 282 283 283 283 283 283 283
271 274 276 276 276 275 274 273 272 272 271 269 267 265 263 260 257 255 253 251 252 255 260 263 265 268 271 269 266 263 262 260 258 255 252 250 249 250 251 253 254 256 259 261 263 265 266 266 266 266 265 264 264 263 261 259 257 255 254 253 254 255 256 257 258 260 261 263 265 267 269 271 272 274 276 277 278 278 279 279 280 280 280 280 280 280
274 275 274 274 273 272 272 271 271 271 269 268 265 263 261 258 255 252 250 250 252 256 260 263 266 269 269 266 261 259 258 257 255 252 250 249 249 251 253 256 258 261 263 265 267 269 269 269 268 266 264 263 261 260 260 259 257 256 256 256 256 257 258 259 261 262 264 266 267 269 270 272 273 274 275 275 276 276 276 277 277 278 278 278 278 277
272 272 271 271 270 270 270 271 270 269 268 266 264 262 259 257 254 251 250 251 254 257 260 263 266 268 266 261 257 255 254 253 251 249 248 248 250 252 255 258 261 264 267 269 271 272 272 271 269 267 264 262 260 259 258 257 257 257 257 258 259 259 260 262 263 264 265 267 268 269 270 271 272 273 273 274 274 274 275 275 275 275 276 275 275 273
269 269 269 269 269 269 269 269 268 267 266 264 262 259 257 255 253 251 251 253 256 258 261 264 267 265 260 256 253 251 250 247 246 245 247 248 250 253 257 260 264 267 270 272 273 274 273 272 271 268 266 264 262 260 259 258 257 257 258 258 259 260 261 263 264 265 266 267 268 269 270 271 271 272 272 272 273 273 273 273 273 273 272 272 271 270
265 267 267 267 268 268 268 266 265 265 264 263 261 258 256 254 253 252 253 255 257 260 263 266 265 261 256 252 249 247 245 243 242 243 245 248 252 255 259 263 266 269 271 273 274 274 273 272 271 269 267 266 265 264 262 261 259 259 259 259 260 261 262 263 264 265 266 267 268 268 269 270 270 271 271 271 271 271 271 271 270 269 269 268 267 266
263 266 267 267 267 266 265 264 263 262 262 261 260 258 255 252 251 252 255 257 261 263 266 265 261 256 252 249 246 243 241 240 241 242 245 249 253 257 261 265 268 271 272 273 273 272 272 271 270 269 268 267 267 266 265 264 262 261 261 261 261 261 262 263 264 265 265 266 267 268 268 268 269 269 269 269 269 269 269 268 267 266 265 264 264 263
265 267 268 267 265 264 262 261 260 260 260 259 257 254 251 249 250 253 257 262 266 267 267 263 258 253 248 246 244 241 238 238 241 244 247 251 255 259 264 267 270 271 272 272 272 271 270 269 268 267 267 266 266 266 266 265 264 263 262 262 261 262 262 263 264 264 265 265 266 266 266 266 266 266 267 267 266 266 266 265 265 264 263 262 261 260
267 268 268 266 264 262 260 259 258 257 255 252 249 248 248 250 253 257 261 266 269 268 265 260 255 250 246 244 242 240 239 239 242 246 250 254 258 263 266 269 271 271 272 272 271 270 268 267 266 265 265 265 265 265 265 265 264 263 262 262 262 262 262 263 263 264 264 264 265 265 265 264 264 264 264 264 263 263 263 263 263 262 261 260 259 258
266 267 266 264 262 260 258 257 255 253 250 248 248 249 252 257 260 262 263 266 266 263 259 254 250 248 245 242 240 239 240 241 244 248 253 258 263 266 269 271 271 271 271 271 270 268 267 265 264 263 263 263 263 264 264 264 264 263 263 262 262 262 263 263 263 263 264 264 264 264 264 263 263 262 262 262 261 261 261 261 261 261 259 258 257 255
263 262 261 259 258 257 257 256 255 253 252 253 255 258 261 263 263 263 262 261 259 255 251 247 245 244 242 240 238 238 240 243 247 251 256 260 265 268 270 271 271 271 270 269 268 267 265 263 262 262 262 261 262 262 263 263 263 263 263 263 263 263 263 263 263 263 263 263 263 263 263 263 262 262 261 261 260 260 260 259 259 259 258 256 254 253
260 259 258 257 256 257 256 256 257 258 260 262 262 262 262 261 261 260 259 256 253 249 245 242 241 241 240 238 238 239 241 245 250 255 259 263 265 267 268 269 269 269 268 267 265 264 263 262 261 261 260 261 261 261 262 262 263 263 263 263 263 263 263 263 263 263 263 263 263 262 262 262 262 261 261 260 259 258 258 257 257 257 255 254 252 251
258 258 257 258 258 259 260 262 264 265 266 264 263 261 259 259 259 258 256 252 249 246 242 238 237 238 239 240 240 241 244 248 253 258 262 264 266 266 266 265 264 264 264 263 262 261 261 260 260 260 260 260 260 261 261 262 262 263 262 262 262 262 262 262 262 262 262 262 261 261 261 261 261 260 259 258 257 256 255 254 254 253 252 251 249 248
253 254 255 257 259 262 263 265 266 265 263 261 261 260 259 258 256 255 252 248 245 243 241 239 237 237 240 242 244 245 248 252 257 261 263 264 264 265 264 262 261 260 260 259 258 258 258 258 258 258 259 259 260 260 261 261 261 262 261 261 261 260 260 260 260 260 260 259 259 259 259 258 258 257 256 255 254 252 251 250 250 249 248 247 246 244
248 249 251 253 257 260 262 262 260 259 258 258 258 258 257 255 253 250 247 244 242 241 241 242 242 243 246 248 249 251 255 257 260 263 263 262 262 263 262 261 259 258 257 257 256 256 256 256 257 257 258 259 260 260 261 261 260 260 260 259 258 258 258 258 258 257 257 256 256 255 255 255 254 253 252 251 249 248 246 246 244 243 242 241 240 238
249 251 253 254 256 258 259 258 257 257 256 256 255 254 253 251 249 246 243 242 242 242 243 244 245 248 252 255 257 257 259 260 261 263 263 261 261 261 261 259 258 257 256 255 255 255 256 256 256 257 258 258 259 260 260 260 259 258 257 256 255 255 255 255 254 254 253 252 252 251 250 250 249 249 248 246 244 243 242 240 239 236 235 234 233 231
259 261 262 261 260 259 259 258 258 256 253 252 250 249 248 247 246 243 242 242 243 244 246 247 249 253 255 257 258 259 260 261 262 262 262 261 260 260 260 259 258 257 256 255 254 255 255 255 256 256 257 257 258 258 258 257 256 255 254 253 253 252 251 251 250 250 249 248 247 247 246 246 245 244 243 242 240 238 237 235 233 231 229 227 225 222
266 265 264 262 261 259 258 258 256 252 248 246 245 244 242 243 242 242 243 244 245 247 249 250 252 255 256 257 257 259 260 261 261 261 261 261 261 260 260 259 258 257 256 254 254 254 254 255 255 256 256 256 256 256 255 254 253 252 251 250 250 249 248 247 246 246 245 244 244 244 243 243 241 240 239 237 236 234 232 230 228 225 223 220 217 213
264 263 262 262 261 259 257 255 252 249 246 244 242 241 241 240 241 242 244 246 248 250 253 253 253 254 256 257 258 259 261 260 259 259 261 261 261 261 260 259 258 257 256 255 254 253 254 254 255 255 254 254 254 253 252 251 250 249 249 248 247 246 245 244 243 242 242 242 242 241 241 240 239 237 235 233 232 230 229 226 224 221 218 215 212 207
262 261 261 262 262 260 257 254 252 250 248 245 242 241 241 241 241 244 246 247 248 249 250 251 253 255 257 258 259 260 260 259 258 258 259 260 261 261 259 258 257 257 256 255 254 254 253 253 254 253 253 252 251 250 249 248 248 247 247 246 245 244 243 242 240 240 240 239 239 239 239 237 236 234 233 230 228 227 225 223 221 219 216 213 210 207
263 262 262 261 260 258 256 253 251 250 248 245 243 242 242 242 241 242 243 245 246 247 249 251 253 255 256 258 258 259 259 258 257 257 257 259 260 259 257 256 256 256 256 255 254 253 253 252 252 251 250 249 248 247 246 246 246 246 245 244 243 242 241 239 238 238 238 238 238 237 237 236 235 233 231 229 226 225 223 222 220 218 216 214 212 210
262 260 259 258 257 255 254 252 250 249 248 247 246 246 246 246 246 247 248 249 249 250 251 252 252 253 254 256 257 258 258 258 257 256 256 258 258 257 255 254 254 255 255 254 253 252 252 251 250 249 248 246 245 244 244 244 244 244 243 242 241 240 239 238 237 237 236 237 237 236 236 235 234 232 230 228 226 225 223 221 221 219 218 217 215 214
258 257 256 255 254 254 253 252 251 250 250 250 250 250 251 251 252 252 252 251 252 252 252 252 252 253 255 257 257 257 257 257 256 255 255 256 257 256 253 252 252 253 253 252 251 250 249 249 248 247 245 243 242 242 242 243 243 242 241 240 239 238 238 237 237 236 236 236 236 236 235 234 233 232 230 229 227 225 224 223 222 221 220 220 219 218
255 254 254 253 253 253 253 253 253 254 254 254 255 255 255 255 254 254 253 253 253 254 254 253 254 255 257 257 257 256 256 255 254 253 253 254 255 255 253 250 250 250 250 249 249 248 246 246 246 245 243 241 240 240 240 241 241 240 240 239 238 237 237 237 237 236 236 236 236 235 235 234 233 232 231 230 228 227 226 225 224 224 224 223 222 222
255 254 254 254 255 256 256 257 258 258 259 258 258 257 257 256 255 254 254 255 255 255 255 255 255 256 257 257 257 255 254 253 252 251 251 252 253 253 252 249 248 247 247 247 246 246 245 244 244 243 241 239 239 238 239 239 239 239 238 238 238 237 237 237 237 237 236 236 236 236 235 234 234 233 232 231 229 229 228 227 227 226 226 226 225 225
258 258 258 258 260 261 262 263 263 262 261 260 259 258 257 256 254 253 254 254 254 253 254 255 256 256 256 256 256 255 252 250 249 249 249 250 251 252 250 247 245 245 244 244 245 245 244 243 242 241 240 238 238 237 237 237 237 238 238 238 238 238 238 237 237 237 237 236 236 236 236 235 235 234 233 232 231 230 230 229 229 229 229 229 228 227
264 264 264 264 265 265 265 265 264 263 262 260 259 258 257 256 254 252 252 252 251 251 252 253 254 254 254 254 254 253 252 249 248 247 248 248 249 249 247 244 242 241 241 241 243 244 244 243 241 240 239 238 237 237 236 237 237 238 238 238 239 239 239 239 238 238 237 237 237 236 236 236 235 235 234 233 233 232 232 232 232 231 231 231 230 230
269 269 269 269 268 267 266 265 264 262 261 260 259 258 257 255 253 251 251 250 250 251 251 252 252 252 251 251 252 252 253 250 247 246 245 246 247 246 242 240 238 239 239 238 239 242 244 243 241 240 239 239 238 237 237 237 237 238 239 239 240 240 240 240 240 239 239 238 238 237 237 237 236 236 236 235 235 234 234 235 235 234 234 233 233 233
272 272 271 271 270 268 267 265 264 262 260 259 257 256 255 253 252 251 250 250 250 250 250 251 250 250 250 250 251 252 254 251 246 243 242 243 243 242 239 237 236 236 237 237 237 239 242 243 241 239 239 238 238 238 238 238 238 239 240 241 241 241 242 242 241 241 241 240 239 239 239 239 238 238 238 237 237 237 237 238 238 237 236 236 235 235
273 273 272 271 270 269 267 265 263 261 259 257 254 253 252 251 250 250 249 249 249 249 249 249 249 249 249 249 249 250 250 248 244 241 239 240 240 240 239 236 235 234 236 237 238 239 240 242 241 240 239 239 239 239 239 239 239 239 240 242 242 243 243 243 243 242 242 242 241 241 241 240 240 240 240 240 240 239 240 240 240 240 239 238 237 237
272 271 271 270 269 268 266 264 262 259 257 254 252 250 249 249 249 249 249 249 248 247 247 247 248 248 248 247 247 246 244 243 242 240 238 238 239 239 238 236 235 234 235 236 238 239 240 241 241 240 239 239 240 240 240 241 240 240 241 242 243 244 244 244 244 243 243 243 243 242 242 242 242 242 242 242 241 241 241 241 242 242 241 240 239 239
270 269 269 268 267 266 265 263 261 259 256 253 251 249 247 247 247 248 248 248 248 247 246 246 246 246 246 246 245 243 240 240 240 238 237 237 238 238 238 236 235 235 235 236 238 239 240 241 241 240 239 239 240 241 242 243 243 243 243 244 245 246 246 246 245 245 245 245 244 244 243 243 242 242 242 242 242 242 242 242 242 243 243 242 241 241
267 266 266 266 265 265 264 262 260 258 256 254 252 249 247 245 245 246 247 247 248 247 246 245 245 244 244 244 243 240 237 236 237 237 236 236 236 237 236 235 235 234 235 236 238 239 239 240 240 240 239 237 237 239 243 245 246 246 246 246 247 247 248 248 247 246 246 246 245 245 244 243 243 242 242 242 242 242 242 242 243 243 244 244 244 243
264 264 264 264 263 262 261 260 259 257 256 254 252 250 248 246 246 246 246 247 248 248 247 246 245 244 243 242 240 238 236 236 237 237 237 237 237 236 236 235 234 234 234 235 237 238 238 238 238 239 238 237 236 237 241 245 247 247 247 248 248 249 249 249 249 248 247 247 246 245 245 244 243 243 243 243 242 242 242 243 243 244 244 245 245 246
263 263 263 262 261 259 258 257 256 255 254 253 252 251 250 249 248 248 248 248 248 248 247 247 245 244 242 241 239 238 238 238 239 239 239 238 238 238 238 236 235 234 234 235 236 237 237 236 236 236 236 237 237 238 240 244 246 247 248 249 249 249 249 250 249 249 248 247 247 246 246 245 245 244 244 244 244 243 243 244 244 244 245 246 247 248
262 261 260 259 258 256 254 253 251 250 249 249 249 250 251 251 251 251 251 251 250 249 248 247 246 244 243 241 240 239 239 239 240 240 240 240 240 239 239 238 236 235 235 236 237 237 237 237 236 236 236 236 236 236 239 242 244 246 248 249 250 250 250 250 250 249 249 248 248 247 247 247 246 246 246 245 245 245 245 245 245 245 245 247 248 249
260 258 257 256 254 252 250 248 246 245 246 247 249 251 252 252 253 253 252 251 251 250 249 247 246 244 243 241 240 239 239 239 239 240 240 240 239 239 239 239 238 237 236 237 237 238 239 239 239 239 239 238 237 236 235 238 241 244 247 248 249 250 251 251 251 250 250 250 249 249 249 248 248 248 247 247 247 246 246 246 246 246 246 247 249 250
258 256 256 254 252 250 248 246 245 245 246 247 249 250 251 251 252 252 252 251 251 250 249 248 247 246 244 241 240 240 239 239 239 239 239 239 239 238 238 238 238 238 237 237 238 239 240 241 241 241 241 241 240 238 236 237 239 242 244 245 246 248 250 252 252 253 253 252 251 251 250 250 249 249 248 248 248 248 247 247 247 248 248 248 249 251
258 257 256 254 253 251 249 247 247 247 248 248 248 248 248 249 249 249 250 250 250 250 250 249 249 248 247 245 243 241 240 240 240 240 239 239 239 238 238 238 238 238 238 238 239 240 241 242 243 243 243 244 244 243 240 239 239 240 242 244 245 247 248 251 253 254 254 254 253 252 251 250 250 249 249 248 248 248 248 248 248 249 250 250 251 251
261 260 258 256 255 254 252 252 250 250 249 248 247 247 248 248 248 248 248 248 248 249 249 250 250 250 248 247 245 244 243 242 242 241 241 241 240 240 239 239 239 239 239 240 241 242 242 243 244 245 246 247 247 246 244 241 240 240 241 243 245 244 243 246 250 253 254 254 254 253 252 251 250 249 249 249 249 249 249 250 250 250 250 251 252 253
264 262 260 259 257 256 256 256 255 253 252 250 249 248 248 248 248 248 248 248 249 249 249 250 251 251 249 248 246 245 245 244 244 243 242 242 242 242 242 241 241 241 241 242 243 244 244 245 245 246 247 248 248 248 247 244 242 241 241 243 244 244 243 244 247 249 251 253 254 254 253 252 251 250 250 250 250 250 250 251 251 251 251 252 253 254
264 263 261 259 258 258 257 257 256 255 254 252 250 249 248 248 249 249 249 250 250 250 250 251 251 251 250 248 245 244 245 246 245 244 243 243 243 243 243 243 243 243 243 244 245 246 246 247 246 246 247 248 249 250 249 248 246 244 243 243 244 246 247 247 246 246 247 250 252 253 253 252 252 251 251 251 250 250 251 251 251 252 252 253 253 254
263 261 260 258 257 256 256 256 255 255 254 253 251 250 250 250 250 250 251 251 251 251 251 251 251 251 251 248 245 243 243 245 246 245 244 243 243 243 243 244 244 244 245 246 247 248 249 249 249 248 248 249 250 251 252 252 251 249 246 245 246 246 247 246 246 245 246 247 249 251 252 253 253 252 252 252 251 250 251 251 251 252 253 253 254 255
262 259 258 257 256 255 255 255 255 255 254 254 253 252 251 251 251 252 252 252 252 252 252 251 251 251 251 249 246 243 242 242 244 245 245 243 242 242 243 244 245 245 246 247 248 249 250 251 251 251 251 252 253 254 255 256 256 255 252 250 248 248 247 246 246 246 246 246 247 249 251 252 253 253 253 253 252 251 251 251 252 252 253 253 254 255
260 259 257 256 255 255 254 255 255 255 255 255 254 253 252 252 252 252 253 253 253 252 252 251 251 251 251 249 246 243 242 241 242 244 245 244 243 242 242 243 245 246 246 247 248 249 250 251 252 253 254 255 257 258 259 258 258 258 257 255 253 251 250 248 247 246 246 247 247 248 250 251 252 253 254 254 254 253 252 252 252 253 253 254 254 255
262 260 259 257 256 254 254 254 255 255 255 256 255 253 252 251 252 252 252 252 252 252 252 252 252 252 251 249 246 244 243 242 242 244 245 246 245 244 243 243 244 245 247 248 249 250 251 252 253 254 255 257 259 262 263 262 261 260 259 257 256 255 253 251 249 248 248 248 248 248 249 251 252 253 254 255 255 255 254 253 253 254 254 255 255 255
263 262 260 258 257 255 254 253 253 254 254 254 254 253 251 251 251 251 252 252 252 252 252 253 253 253 252 250 247 245 244 243 243 244 246 248 248 247 246 244 244 245 246 248 249 251 252 253 254 255 256 257 259 262 264 265 264 262 260 259 258 258 257 255 253 251 250 250 249 250 250 251 252 253 254 255 256 256 255 254 254 255 255 256 256 256
265 262 260 258 257 256 254 253 253 252 252 253 252 251 250 249 249 250 251 252 253 253 253 254 254 254 253 251 249 246 245 244 244 244 246 248 250 250 249 247 246 246 247 248 249 250 252 254 256 256 257 258 259 261 264 265 266 265 263 262 261 260 260 258 256 255 253 252 252 252 252 252 253 254 254 255 256 256 256 255 254 254 254 255 256 256
Height
1511 1512 1512 1513 1513 1513 1513 1513 1513 1513 1513 1513 1514 1514 1514 1515 1515 1515 1515 1515 1516 1516 1516 1516 1516 1516 1516 1516 1516 1516 1515 1515 1515 1515 1515 1516 1516 1516 1516 1516 1516 1516 1516 1516 1516 1517 1517 1517 1517 1517 1517 1517 1517 1517 1518 1518 1518 1518 1519 1519 1519 1520 1520 1520 1520 1521 1521 1521 1522 1522 1522 1522 1523 1523 1524 1524 1524 1524 1523 1523 1523 1524 1524 1524 1524 1524
1509 1510 1510 1510 1510 1511 1511 1511 1511 1511 1511 1512 1512 1512 1513 1513 1513 1513 1513 1514 1514 1514 1514 1514 1514 1514 1514 1514 1514 1514 1514 1514 1514 1514 1514 1514 1515 1515 1515 1515 1515 1515 1515 1516 1516 1516 1516 1516 1516 1516 1516 1516 1516 1516 1516 1516 1516 1517 1517 1517 1518 1518 1518 1518 1519 1519 1519 1520 1520 1521 1521 1521 1522 1522 1522 1522 1522 1522 1522 1522 1522 1523 1523 1523 1523 1523
1507 1508 1508 1508 1508 1509 1509 1509 1509 1509 1510 1510 1510 1511 1511 1511 1512 1512 1512 1512 1512 1512 1512 1513 1513 1513 1513 1513 1513 1512 1513 1513 1513 1513 1513 1513 1513 1514 1514 1514 1514 1514 1514 1514 1515 1515 1515 1515 1515 1515 1515 1515 1515 1515 1515 1515 1515 1515 1516 1516 1516 1516 1517 1517 1517 1518 1518 1518 1519 1519 1520 1520 1520 1521 1521 1521 1521 1521 1521 1521 1521 1521 1521 1521 1522 1522
1505 1505 1505 1506 1506 1507 1507 1507 1507 1507 1508 1508 1509 1509 1510 1510 1510 1510 1510 1510 1511 1511 1511 1511 1511 1511 1511 1511 1511 1511 1511 1511 1512 1512 1512 1512 1512 1513 1513 1513 1513 1513 1513 1513 1513 1513 1513 1513 1513 1513 1513 1513 1513 1513 1513 1513 1514 1514 1514 1514 1515 1515 1516 1516 1516 1516 1517 1517 1518 1518 1518 1518 1518 1519 1519 1519 1519 1519 1519 1520 1520 1520 1520 1520 1520 1520
1502 1503 1503 1504 1504 1505 1505 1505 1505 1506 1506 1506 1507 1507 1508 1508 1508 1508 1508 1509 1509 1510 1510 1510 1510 1510 1510 1510 1510 1510 1510 1510 1510 1511 1511 1511 1511 1512 1512 1512 1512 1512 1512 1512 1512 1512 1512 1512 1512 1512 1512 1512 1512 1512 1512 1512 1513 1513 1513 1513 1514 1514 1514 1515 1515 1515 1516 1516 1516 1516 1516 1517 1517 1517 1517 1518 1518 1518 1518 1518 1518 1519 1519 1519 1519 1519
1500 1501 1501 1502 1502 1503 1503 1503 1503 1504 1504 1505 1505 1506 1506 1506 1506 1507 1507 1508 1508 1508 1508 1508 1508 1508 1508 1508 1508 1508 1509 1509 1509 1509 1510 1510 1510 1511 1511 1511 1511 1511 1511 1511 1511 1511 1511 1511 1511 1511 1511 1511 1511 1511 1511 1511 1512 1512 1512 1512 1513 1513 1513 1513 1514 1514 1514 1514 1515 1515 1515 1515 1516 1516 1516 1516 1516 1517 1517 1517 1517 1517 1517 1518 1518 1518
1498 1498 1499 1500 1500 1501 1501 1501 1502 1502 1503 1503 1503 1504 1504 1504 1504 1505 1506 1506 1507 1507 1507 1507 1507 1507 1507 1507 1507 1507 1508 1508 1508 1508 1509 1509 1509 1509 1510 1510 1510 1510 1510 1510 1510 1510 1510 1510 1510 1510 1510 1510 1510 1510 1510 1511 1511 1511 1511 1511 1512 1512 1512 1512 1512 1513 1513 1513 1513 1513 1514 1514 1514 1514 1515 1515 1515 1515 1516 1516 1516 1516 1516 1516 1516 1517
1496 1497 1497 1498 1498 1499 1499 1500 1500 1500 1501 1501 1501 1502 1502 1502 1503 1504 1504 1505 1505 1505 1505 1505 1505 1505 1506 1506 1506 1506 1506 1507 1507 1507 1507 1508 1508 1508 1508 1508 1509 1508 1508 1508 1508 1508 1508 1508 1508 1508 1508 1508 1508 1509 1509 1509 1510 1510 1510 1510 1511 1511 1511 1511 1511 1511 1511 1512 1512 1512 1512 1513 1513 1513 1513 1513 1514 1514 1514 1514 1515 1515 1515 1515 1515 1516
1495 1495 1496 1496 1496 1497 1497 1498 1498 1499 1499 1499 1499 1500 1501 1501 1502 1502 1503 1503 1503 1504 1504 1504 1504 1504 1504 1504 1505 1505 1505 1506 1506 1506 1506 1506 1507 1507 1507 1507 1507 1507 1507 1507 1507 1507 1507 1507 1507 1507 1507 1507 1507 1507 1508 1508 1508 1509 1509 1509 1509 1509 1510 1510 1510 1510 1510 1510 1511 1511 1511 1511 1511 1512 1512 1512 1512 1512 1513 1513 1513 1514 1514 1514 1514 1515
1493 1493 1494 1494 1495 1495 1495 1496 1496 1497 1497 1498 1498 1499 1499 1500 1500 1501 1501 1502 1502 1502 1502 1502 1503 1503 1503 1503 1503 1504 1504 1504 1505 1505 1505 1505 1506 1506 1506 1506 1506 1506 1506 1506 1506 1506 1506 1506 1506 1506 1506 1506 1506 1506 1506 1507 1507 1508 1508 1508 1508 1508 1508 1508 1508 1509 1509 1509 1509 1510 1510 1510 1510 1510 1511 1511 1511 1511 1511 1512 1512 1512 1513 1513 1513 1513
1491 1492 1492 1492 1493 1493 1494 1494 1495 1495 1496 1496 1497 1497 1498 1498 1499 1499 1500 1500 1500 1500 1501 1501 1501 1502 1502 1502 1502 1503 1503 1503 1503 1503 1504 1504 1504 1504 1505 1505 1505 1504 1504 1504 1504 1504 1504 1504 1504 1504 1504 1505 1505 1505 1505 1505 1506 1506 1506 1506 1507 1507 1507 1507 1507 1507 1508 1508 1508 1508 1508 1509 1509 1509 1509 1509 1510 1510 1510 1510 1511 1511 1511 1511 1512 1512
1490 1490 1490 1491 1491 1491 1492 1493 1493 1494 1494 1495 1495 1496 1496 1497 1498 1498 1498 1498 1499 1499 1499 1500 1500 1500 1500 1501 1501 1501 1502 1502 1502 1502 1503 1503 1503 1503 1503 1503 1503 1503 1503 1503 1503 1503 1503 1503 1503 1503 1503 1503 1503 1504 1504 1504 1504 1505 1505 1505 1505 1505 1506 1506 1506 1506 1506 1507 1507 1507 1507 1507 1508 1508 1508 1508 1508 1508 1509 1509 1509 1509 1510 1510 1510 1510
1488 1488 1489 1489 1489 1490 1490 1491 1492 1492 1493 1493 1494 1494 1495 1496 1496 1497 1497 1497 1498 1498 1498 1498 1498 1499 1499 1500 1500 1500 1500 1501 1501 1501 1501 1501 1502 1502 1502 1502 1502 1501 1501 1501 1502 1502 1502 1502 1502 1502 1502 1502 1502 1502 1503 1503 1503 1503 1503 1504 1504 1504 1504 1504 1505 1505 1505 1505 1506 1506 1506 1506 1506 1506 1506 1507 1507 1507 1507 1507 1508 1508 1508 1508 1508 1509
1486 1487 1487 1488 1488 1489 1489 1490 1490 1491 1491 1492 1492 1493 1494 1494 1495 1495 1496 1496 1496 1496 1497 1497 1497 1497 1498 1498 1498 1499 1499 1499 1499 1500 1500 1500 1500 1500 1501 1500 1500 1500 1500 1500 1500 1500 1500 1501 1501 1501 1501 1501 1501 1501 1501 1502 1502 1502 1502 1502 1503 1503 1503 1503 1503 1504 1504 1504 1504 1504 1504 1505 1505 1505 1505 1505 1505 1505 1506 1506 1506 1506 1506 1507 1507 1507
1485 1485 1486 1486 1487 1487 1488 1488 1489 1489 1490 1491 1492 1492 1493 1493 1493 1494 1494 1494 1495 1495 1495 1496 1496 1496 1496 1497 1497 1497 1498 1498 1498 1498 1499 1499 1499 1499 1499 1499 1499 1499 1499 1499 1499 1499 1499 1499 1499 1500 1500 1500 1500 1500 1500 1500 1501 1501 1501 1501 1501 1502 1502 1502 1502 1502 1503 1503 1503 1503 1503 1503 1503 1503 1503 1503 1504 1504 1504 1504 1504 1505 1505 1506 1506 1506
1484 1484 1485 1486 1486 1486 1487 1488 1488 1489 1489 1490 1490 1491 1491 1492 1492 1492 1493 1493 1493 1493 1494 1494 1494 1495 1495 1495 1496 1496 1496 1497 1497 1497 1497 1497 1498 1498 1498 1498 1498 1498 1498 1498 1498 1498 1498 1498 1498 1498 1498 1499 1499 1499 1499 1499 1499 1500 1500 1500 1500 1500 1501 1501 1501 1501 1501 1501 1501 1501 1502 1502 1502 1502 1502 1502 1502 1503 1503 1503 1503 1504 1504 1504 1505 1505
1483 1483 1484 1485 1485 1486 1486 1487 1487 1488 1488 1488 1489 1489 1490 1490 1491 1491 1491 1491 1492 1492 1492 1493 1493 1493 1493 1494 1494 1495 1495 1496 1496 1496 1496 1496 1496 1496 1496 1496 1496 1496 1496 1496 1497 1497 1497 1497 1497 1497 1497 1498 1498 1498 1498 1498 1498 1498 1499 1499 1499 1499 1499 1500 1500 1500 1500 1500 1500 1500 1500 1500 1500 1501 1501 1501 1501 1501 1502 1502 1502 1503 1503 1503 1504 1504
1482 1482 1483 1483 1484 1484 1485 1486 1486 1486 1487 1487 1488 1488 1488 1489 1489 1489 1490 1490 1490 1490 1491 1491 1492 1492 1492 1493 1493 1494 1494 1495 1495 1494 1494 1494 1494 1495 1495 1495 1495 1495 1495 1495 1495 1495 1496 1496 1496 1496 1496 1496 1496 1497 1497 1497 1497 1497 1498 1498 1498 1498 1498 1498 1498 1498 1499 1499 1499 1499 1499 1499 1499 1499 1500 1500 1500 1500 1501 1501 1501 1502 1502 1503 1503 1503
1481 1481 1482 1482 1483 1483 1484 1484 1485 1485 1485 1486 1486 1487 1487 1487 1488 1488 1488 1488 1489 1489 1490 1490 1491 1491 1491 1492 1492 1493 1493 1493 1493 1493 1493 1493 1493 1493 1493 1493 1493 1494 1494 1494 1494 1494 1494 1494 1495 1495 1495 1495 1495 1496 1496 1496 1496 1496 1496 1496 1497 1497 1497 1497 1497 1497 1498 1498 1498 1498 1498 1498 1498 1499 1499 1499 1499 1500 1500 1500 1501 1501 1502 1502 1502 1503
1480 1481 1481 1481 1482 1482 1483 1483 1483 1484 1484 1485 1485 1485 1486 1486 1486 1486 1487 1487 1488 1488 1489 1489 1489 1490 1490 1491 1491 1491 1492 1492 1491 1491 1491 1491 1491 1492 1492 1492 1492 1492 1492 1493 1493 1493 1493 1493 1493 1494 1494 1494 1494 1494 1494 1495 1495 1495 1495 1495 1495 1496 1496 1496 1496 1496 1496 1497 1497 1497 1497 1497 1498 1498 1498 1498 1499 1499 1499 1500 1500 1501 1501 1501 1502 1502
1479 1480 1480 1481 1481 1481 1481 1482 1482 1483 1483 1483 1484 1484 1484 1484 1485 1485 1486 1486 1486 1487 1487 1488 1488 1488 1489 1489 1489 1490 1490 1490 1490 1489 1489 1489 1489 1490 1490 1491 1491 1491 1491 1491 1491 1491 1491 1492 1492 1492 1493 1493 1493 1493 1493 1493 1494 1494 1494 1494 1494 1494 1495 1495 1495 1495 1496 1496 1496 1496 1496 1497 1497 1497 1497 1498 1498 1498 1499 1499 1500 1500 1501 1501 1501 1502
1479 1479 1479 1479 1480 1480 1481 1481 1481 1481 1482 1482 1482 1483 1483 1483 1484 1484 1484 1485 1485 1486 1486 1487 1487 1487 1487 1487 1488 1488 1488 1488 1488 1488 1488 1488 1488 1488 1489 1489 1489 1489 1489 1490 1490 1490 1490 1491 1491 1491 1491 1491 1492 1492 1492 1492 1492 1493 1493 1493 1493 1493 1494 1494 1494 1494 1495 1495 1495 1495 1496 1496 1496 1496 1497 1497 1498 1498 1498 1499 1499 1500 1500 1501 1501 1501
1478 1478 1478 1478 1479 1479 1480 1480 1480 1480 1481 1481 1481 1481 1482 1482 1483 1483 1483 1484 1484 1484 1485 1485 1485 1485 1485 1486 1486 1486 1486 1487 1487 1487 1486 1486 1486 1487 1487 1488 1488 1488 1488 1488 1488 1489 1489 1489 1489 1490 1490 1490 1491 1491 1491 1491 1491 1491 1491 1492 1492 1492 1493 1493 1493 1493 1494 1494 1494 1495 1495 1495 1496 1496 1496 1497 1497 1497 1498 1498 1499 1499 1500 1500 1500 1501
1477 1477 1477 1478 1478 1478 1479 1479 1479 1479 1480 1480 1480 1480 1481 1481 1481 1482 1482 1482 1483 1483 1483 1483 1484 1484 1484 1484 1484 1484 1485 1485 1485 1485 1485 1485 1485 1486 1486 1486 1486 1486 1486 1487 1487 1487 1488 1488 1488 1488 1489 1489 1489 1489 1490 1490 1490 1490 1491 1491 1491 1491 1492 1492 1492 1493 1493 1493 1493 1494 1494 1494 1495 1495 1496 1496 1496 1497 1497 1498 1498 1498 1499 1499 1500 1500
1476 1476 1476 1477 1477 1478 1478 1478 1478 1478 1478 1479 1479 1479 1479 1480 1480 1480 1481 1481 1481 1482 1482 1482 1482 1482 1482 1482 1483 1483 1483 1484 1484 1484 1484 1484 1484 1484 1485 1485 1485 1485 1485 1486 1486 1486 1486 1487 1487 1487 1488 1488 1488 1488 1488 1489 1489 1489 1489 1490 1490 1490 1491 1491 1491 1492 1492 1492 1493 1493 1493 1494 1494 1494 1495 1495 1496 1496 1497 1497 1498 1498 1498 1499 1499 1500
1475 1476 1476 1476 1476 1477 1477 1477 1477 1477 1477 1477 1478 1478 1478 1478 1479 1479 1479 1479 1480 1480 1480 1480 1480 1480 1481 1481 1481 1482 1482 1482 1482 1482 1482 1483 1483 1483 1483 1484 1484 1484 1484 1484 1485 1485 1485 1486 1486 1486 1486 1487 1487 1487 1487 1488 1488 1488 1488 1489 1489 1489 1490 1490 1490 1491 1491 1491 1492 1492 1493 1493 1493 1494 1494 1495 1495 1496 1496 1496 1497 1497 1498 1498 1499 1499
1474 1475 1475 1475 1475 1476 1476 1476 1476 1476 1476 1476 1476 1477 1477 1477 1477 1478 1478 1478 1478 1479 1479 1479 1479 1479 1479 1480 1480 1480 1481 1481 1481 1481 1481 1481 1481 1481 1482 1483 1483 1483 1483 1483 1483 1484 1484 1484 1485 1485 1485 1486 1486 1486 1486 1486 1487 1487 1487 1488 1488 1488 1489 1489 1489 1490 1490 1491 1491 1491 1492 1492 1493 1493 1493 1494 1494 1495 1495 1496 1496 1497 1497 1498 1498 1498
1473 1473 1474 1474 1474 1474 1475 1475 1475 1475 1475 1475 1475 1476 1476 1476 1476 1476 1476 1477 1477 1477 1477 1477 1477 1478 1478 1478 1479 1479 1479 1479 1480 1480 1480 1480 1480 1480 1481 1482 1482 1482 1482 1482 1482 1483 1483 1483 1484 1484 1484 1485 1485 1485 1485 1486 1486 1486 1486 1487 1487 1487 1488 1488 1488 1489 1489 1490 1490 1491 1491 1491 1492 1492 1493 1493 1494 1494 1494 1495 1495 1496 1496 1497 1497 1498
1472 1472 1473 1473 1473 1473 1473 1473 1473 1473 1474 1474 1474 1474 1474 1474 1475 1475 1475 1476 1476 1476 1476 1476 1476 1477 1477 1477 1477 1477 1478 1478 1479 1479 1479 1479 1479 1479 1480 1481 1481 1481 1481 1481 1482 1482 1482 1483 1483 1483 1483 1483 1484 1484 1484 1485 1485 1485 1485 1486 1486 1486 1487 1487 1488 1488 1488 1489 1489 1490 1490 1491 1491 1491 1492 1492 1493 1493 1494 1494 1494 1495 1495 1496 1496 1497
1471 1471 1471 1472 1472 1472 1472 1472 1472 1472 1472 1472 1472 1473 1473 1473 1473 1474 1474 1474 1474 1474 1474 1475 1475 1475 1476 1476 1476 1476 1476 1477 1478 1478 1478 1478 1478 1478 1479 1479 1480 1480 1480 1481 1481 1481 1481 1482 1482 1482 1482 1483 1483 1483 1483 1484 1484 1484 1485 1485 1485 1485 1486 1486 1487 1487 1487 1488 1488 1489 1489 1489 1490 1490 1491 1491 1492 1492 1493 1493 1493 1494 1494 1495 1496 1496
1470 1470 1470 1470 1470 1470 1470 1470 1470 1470 1470 1471 1471 1471 1471 1472 1472 1472 1472 1472 1473 1473 1473 1473 1474 1474 1474 1474 1474 1474 1475 1476 1476 1477 1477 1477 1477 1477 1478 1478 1478 1479 1479 1480 1480 1480 1480 1481 1481 1481 1481 1482 1482 1482 1482 1483 1483 1483 1484 1484 1484 1484 1485 1485 1486 1486 1486 1487 1487 1488 1488 1488 1489 1489 1490 1490 1491 1491 1492 1492 1492 1493 1493 1494 1494 1495
1468 1468 1468 1468 1468 1468 1469 1469 1469 1469 1469 1469 1470 1470 1470 1470 1470 1471 1471 1471 1471 1472 1472 1472 1472 1473 1473 1473 1473 1473 1474 1475 1475 1476 1476 1476 1476 1476 1477 1477 1478 1478 1478 1479 1479 1479 1479 1479 1480 1480 1480 1481 1481 1481 1481 1482 1482 1482 1483 1483 1483 1484 1484 1484 1485 1485 1486 1486 1486 1487 1487 1487 1488 1488 1489 1489 1490 1490 1491 1491 1491 1492 1492 1493 1493 1494
1467 1467 1467 1467 1467 1467 1467 1467 1467 1467 1468 1468 1468 1468 1468 1469 1469 1469 1469 1470 1470 1470 1471 1471 1471 1471 1472 1472 1472 1473 1473 1474 1474 1474 1475 1475 1475 1475 1476 1476 1477 1477 1477 1478 1478 1478 1478 1478 1479 1479 1479 1480 1480 1480 1480 1481 1481 1482 1482 1482 1482 1483 1483 1483 1484 1484 1484 1485 1485 1486 1486 1486 1487 1487 1488 1488 1489 1489 1490 1490 1490 1491 1491 1492 1492 1493
1466 1466 1466 1466 1466 1466 1466 1466 1466 1466 1466 1467 1467 1467 1467 1467 1467 1468 1468 1468 1468 1469 1469 1469 1470 1470 1470 1471 1471 1472 1472 1472 1473 1473 1473 1473 1474 1474 1475 1475 1476 1476 1476 1477 1477 1477 1477 1478 1478 1478 1478 1479 1479 1479 1479 1480 1480 1481 1481 1481 1481 1482 1482 1482 1483 1483 1483 1484 1484 1484 1485 1485 1486 1486 1487 1487 1488 1488 1488 1489 1489 1489 1490 1490 1491 1491
1465 1465 1464 1464 1464 1464 1464 1464 1465 1465 1465 1465 1466 1466 1466 1466 1466 1466 1467 1467 1467 1468 1468 1468 1468 1469 1469 1469 1470 1470 1471 1471 1471 1472 1472 1472 1473 1473 1474 1474 1475 1475 1476 1476 1476 1476 1476 1477 1477 1477 1478 1478 1478 1478 1478 1479 1479 1480 1480 1480 1480 1481 1481 1481 1482 1482 1482 1483 1483 1483 1484 1484 1485 1485 1485 1486 1486 1487 1487 1487 1488 1488 1488 1489 1489 1490
1463 1463 1463 1463 1463 1463 1463 1463 1463 1464 1464 1464 1464 1464 1465 1465 1465 1465 1465 1466 1466 1466 1467 1467 1467 1468 1468 1468 1469 1469 1470 1470 1470 1470 1471 1471 1472 1472 1473 1473 1473 1474 1474 1475 1475 1475 1475 1476 1476 1476 1477 1477 1477 1477 1477 1478 1478 1479 1479 1479 1479 1480 1480 1480 1481 1481 1481 1481 1482 1482 1482 1483 1483 1483 1484 1484 1485 1485 1486 1486 1486 1487 1487 1487 1488 1488
1462 1462 1462 1463 1462 1462 1462 1462 1462 1463 1463 1463 1463 1463 1463 1463 1464 1464 1464 1464 1465 1465 1466 1466 1466 1467 1467 1467 1468 1468 1468 1468 1469 1469 1470 1470 1471 1471 1471 1472 1472 1473 1473 1473 1474 1474 1474 1475 1475 1475 1475 1476 1476 1476 1476 1477 1477 1477 1478 1478 1478 1478 1479 1479 1479 1480 1480 1480 1480 1481 1481 1481 1482 1482 1482 1483 1483 1483 1484 1484 1485 1485 1486 1486 1486 1487
1461 1461 1462 1462 1461 1461 1461 1461 1461 1462 1462 1462 1461 1461 1462 1462 1462 1463 1463 1463 1464 1464 1464 1465 1465 1466 1466 1466 1467 1467 1467 1467 1468 1468 1469 1469 1469 1470 1470 1471 1471 1472 1472 1472 1472 1473 1473 1473 1473 1474 1474 1474 1475 1475 1475 1476 1476 1476 1476 1477 1477 1477 1477 1478 1478 1478 1478 1479 1479 1479 1479 1480 1480 1481 1481 1481 1481 1482 1482 1483 1483 1483 1484 1484 1485 1485
1461 1461 1461 1461 1461 1460 1460 1460 1461 1461 1460 1460 1460 1461 1461 1461 1461 1462 1462 1462 1463 1463 1463 1464 1464 1464 1465 1465 1465 1466 1466 1466 1467 1467 1468 1468 1468 1469 1469 1470 1470 1470 1471 1471 1471 1471 1471 1472 1472 1472 1473 1473 1474 1474 1474 1474 1475 1475 1475 1475 1476 1476 1476 1476 1476 1477 1477 1477 1477 1478 1478 1478 1479 1479 1479 1480 1480 1480 1481 1481 1481 1482 1482 1483 1483 1483
1459 1460 1460 1460 1459 1459 1459 1459 1459 1459 1459 1459 1459 1460 1460 1460 1461 1461 1461 1461 1462 1462 1462 1463 1463 1463 1463 1464 1464 1464 1465 1465 1465 1466 1466 1467 1467 1467 1468 1468 1469 1469 1469 1469 1470 1470 1470 1470 1471 1471 1472 1472 1473 1473 1473 1473 1473 1474 1474 1474 1474 1474 1475 1475 1475 1475 1475 1476 1476 1476 1476 1477 1477 1477 1478 1478 1478 1478 1479 1479 1480 1480 1481 1481 1482 1482
1458 1458 1459 1458 1458 1458 1458 1458 1458 1458 1458 1458 1458 1459 1459 1459 1459 1460 1460 1460 1461 1461 1461 1461 1462 1462 1462 1463 1463 1463 1463 1464 1464 1464 1465 1465 1466 1466 1466 1467 1467 1467 1468 1468 1468 1468 1469 1469 1469 1470 1470 1471 1471 1472 1472 1472 1472 1473 1473 1473 1473 1473 1473 1473 1473 1474 1474 1474 1475 1475 1475 1475 1476 1476 1476 1476 1476 1477 1477 1478 1478 1478 1479 1479 1480 1480
1457 1458 1458 1457 1457 1457 1457 1457 1457 1457 1457 1458 1458 1458 1458 1458 1459 1459 1459 1459 1459 1460 1460 1460 1460 1461 1461 1461 1462 1462 1462 1463 1463 1463 1463 1464 1464 1465 1465 1465 1466 1466 1466 1466 1467 1467 1467 1468 1468 1468 1469 1469 1470 1470 1470 1471 1471 1471 1471 1471 1472 1472 1472 1472 1472 1472 1473 1473 1473 1473 1474 1474 1474 1474 1474 1474 1475 1475 1475 1476 1476 1477 1477 1478 1478 1479
1456 1456 1456 1456 1456 1456 1456 1456 1456 1456 1457 1457 1457 1457 1457 1457 1458 1458 1458 1458 1458 1458 1459 1459 1459 1459 1459 1460 1460 1461 1461 1461 1461 1462 1462 1463 1463 1463 1463 1464 1464 1464 1465 1465 1465 1465 1466 1466 1467 1467 1468 1468 1468 1468 1468 1469 1470 1470 1470 1470 1471 1471 1471 1471 1471 1471 1471 1471 1471 1472 1472 1472 1472 1472 1472 1472 1473 1473 1474 1474 1475 1475 1476 1476 1476 1477
1455 1455 1455 1455 1455 1455 1455 1455 1456 1456 1456 1456 1456 1456 1456 1456 1456 1457 1457 1457 1457 1457 1458 1458 1458 1458 1458 1459 1459 1460 1460 1460 1460 1461 1461 1461 1461 1462 1462 1462 1463 1463 1463 1463 1464 1464 1464 1465 1465 1466 1466 1466 1466 1466 1467 1467 1468 1468 1469 1469 1469 1469 1469 1469 1470 1470 1470 1470 1470 1470 1470 1470 1470 1470 1470 1471 1471 1471 1472 1472 1473 1473 1474 1474 1474 1475
1454 1454 1454 1454 1454 1454 1454 1454 1454 1455 1455 1455 1455 1455 1456 1456 1456 1456 1456 1456 1456 1456 1456 1457 1457 1457 1457 1458 1458 1459 1459 1459 1459 1459 1460 1460 1460 1461 1461 1461 1461 1462 1462 1462 1462 1463 1463 1463 1464 1464 1465 1465 1464 1464 1465 1466 1466 1467 1467 1468 1468 1468 1468 1468 1468 1468 1468 1468 1468 1468 1468 1468 1468 1468 1468 1469 1469 1470 1470 1470 1471 1471 1472 1472 1472 1473
1453 1453 1453 1453 1453 1453 1453 1453 1453 1453 1454 1454 1454 1454 1455 1455 1454 1455 1455 1455 1455 1455 1455 1455 1456 1456 1456 1456 1457 1457 1457 1457 1458 1458 1458 1458 1459 1459 1459 1460 1460 1460 1460 1461 1461 1461 1461 1462 1462 1463 1463 1463 1463 1463 1463 1464 1465 1466 1466 1466 1466 1466 1466 1466 1467 1467 1467 1467 1467 1466 1466 1466 1466 1466 1466 1467 1467 1468 1468 1468 1469 1469 1470 1470 1470 1471
1452 1452 1452 1452 1452 1452 1452 1452 1452 1452 1452 1453 1453 1453 1453 1453 1453 1453 1453 1453 1454 1454 1454 1454 1454 1454 1454 1455 1456 1456 1456 1456 1456 1456 1456 1457 1457 1457 1458 1458 1458 1458 1459 1459 1459 1460 1460 1460 1461 1461 1461 1461 1461 1461 1462 1463 1463 1464 1464 1465 1465 1464 1464 1465 1465 1465 1465 1465 1465 1465 1464 1464 1464 1464 1465 1465 1465 1466 1466 1467 1467 1468 1468 1468 1468 1469
1451 1451 1451 1451 1451 1451 1451 1451 1451 1451 1451 1451 1452 1452 1452 1452 1452 1452 1452 1452 1452 1452 1452 1452 1453 1453 1453 1453 1454 1454 1455 1455 1455 1455 1455 1455 1455 1456 1456 1456 1456 1457 1457 1458 1458 1458 1458 1458 1459 1459 1459 1459 1459 1459 1460 1461 1462 1462 1462 1463 1463 1463 1463 1463 1463 1463 1463 1463 1463 1463 1462 1462 1462 1462 1463 1463 1463 1464 1465 1465 1465 1466 1466 1466 1466 1467
1449 1449 1449 1449 1449 1449 1449 1450 1450 1450 1450 1450 1450 1451 1451 1451 1451 1451 1451 1451 1451 1451 1451 1451 1451 1451 1451 1452 1453 1453 1453 1453 1453 1453 1453 1453 1454 1454 1454 1455 1455 1455 1455 1456 1456 1456 1456 1457 1457 1457 1457 1458 1458 1458 1458 1459 1460 1460 1460 1460 1460 1461 1461 1461 1461 1462 1461 1461 1461 1461 1460 1460 1460 1461 1461 1461 1461 1462 1463 1463 1463 1464 1464 1464 1464 1465
1448 1448 1448 1448 1448 1448 1448 1448 1448 1448 1448 1449 1449 1449 1449 1449 1449 1449 1449 1449 1449 1449 1449 1449 1450 1450 1450 1450 1451 1451 1451 1451 1452 1452 1452 1452 1452 1452 1453 1453 1453 1453 1454 1454 1454 1454 1454 1454 1455 1455 1456 1456 1456 1456 1457 1457 1458 1458 1458 1458 1458 1458 1459 1459 1459 1459 1459 1459 1459 1458 1458 1458 1458 1459 1459 1459 1459 1460 1460 1461 1462 1462 1462 1462 1462 1463
1446 1446 1446 1446 1446 1446 1447 1447 1447 1447 1447 1447 1447 1447 1447 1447 1447 1447 1447 1448 1448 1448 1448 1448 1448 1448 1448 1449 1449 1450 1450 1450 1450 1450 1450 1450 1450 1450 1451 1451 1451 1452 1452 1452 1452 1452 1453 1452 1452 1453 1453 1454 1455 1455 1455 1455 1455 1456 1456 1456 1456 1457 1457 1457 1457 1457 1457 1457 1456 1456 1456 1456 1457 1457 1457 1457 1457 1457 1458 1459 1460 1460 1460 1460 1460 1460